Little Rock AFB, AR

3:55 AM CDT on June 29, 2017 (GMT -0500)
Little Rock Air Force Base

Weather History for KLRF - April, 2013

Change the Weather History Date:

Sunday, April 7, 2013

  Actual Average Record
Temperature  
Mean Temperature 64 °F -  
Max Temperature 71 °F 71 °F 87 °F (1977)
Min Temperature 58 °F 48 °F 31 °F (1971)
Degree Days  
Heating Degree Days 1    
Growing Degree Days 14 (Base 50)    
Moisture  
Dew Point 54 °F    
Average Humidity 70    
Maximum Humidity 80    
Minimum Humidity 60    
Precipitation  
Precipitation 0.00 in - - ()
Sea Level Pressure  
Sea Level Pressure 29.95 in    
Wind  
Wind Speed 7 mph (SSE)    
Max Wind Speed 12 mph    
Max Gust Speed 16 mph    
Visibility 10 miles    
Events      
Averages and records for this station are not official NWS values.
T = Trace of Precipitation, MM = Missing Value Source: NWS Daily Summary

Daily Weather History Graph

Daily Weather History Graph

Search for Another Location

Airport or City:

Trip Planner

Search our weather history database for the weather conditions in past years. The results will help you decide how hot, cold, wet, or windy it might be!

Date:

Astronomy

Apr. 07, 2013 Rise Set
Actual Time 6:46 AM CDT 7:34 PM CDT
Civil Twilight 6:21 AM CDT 8:00 PM CDT
Nautical Twilight 5:50 AM CDT 8:30 PM CDT
Astronomical Twilight 5:19 AM CDT 9:02 PM CDT
Moon 4:58 AM CDT (4/7) 5:12 PM CDT (4/7)
Length of Visible Light 13h 39m
Length of Day
12h 47m
Waning Crescent, 8% of the Moon is Illuminated
Apr 7
Waning Crescent
Apr 10
New
Apr 18
First Quarter
Apr 25
Full
May 2
Last Quarter

Hourly Weather History & Observations

Time (CDT) Temp. Dew Point Humidity Pressure Visibility Wind Dir Wind Speed Gust Speed Precip Events Conditions
12:58 AM 61.2 °F 47.3 °F 60% 29.95 in 10.0 mi South 6.9 mph - N/A   Clear
1:58 AM 59.9 °F 48.6 °F 66% 29.95 in 10.0 mi South 5.8 mph - N/A   Clear
2:58 AM 59.9 °F 49.6 °F 69% 29.95 in 10.0 mi South 6.9 mph - N/A   Clear
3:58 AM 59.2 °F 50.2 °F 72% 29.96 in 10.0 mi South 4.6 mph - N/A   Scattered Clouds
4:58 AM 59.2 °F 50.9 °F 74% 29.96 in 10.0 mi Variable 2.3 mph - N/A   Mostly Cloudy
5:07 AM 59.0 °F 51.8 °F 77% 29.95 in 10.0 mi Variable 2.3 mph - N/A   Light Drizzle
5:15 AM 59.0 °F 51.8 °F 77% 29.95 in 10.0 mi South 3.5 mph - N/A   Overcast
5:58 AM 58.8 °F 51.8 °F 77% 29.97 in 10.0 mi South 4.6 mph - 0.00 in   Overcast
6:58 AM 59.0 °F 52.3 °F 79% 29.98 in 10.0 mi South 4.6 mph - N/A   Mostly Cloudy
7:58 AM 59.2 °F 53.1 °F 80% 30.00 in 10.0 mi South 5.8 mph - N/A   Mostly Cloudy
8:58 AM 59.7 °F 53.6 °F 80% 30.00 in 10.0 mi Variable 5.8 mph - N/A   Overcast
9:58 AM 61.3 °F 54.5 °F 78% 30.01 in 10.0 mi South 8.1 mph - N/A   Mostly Cloudy
10:58 AM 63.9 °F 55.4 °F 74% 30.02 in 10.0 mi SSW 10.4 mph - N/A   Mostly Cloudy
11:18 AM 64.4 °F 55.4 °F 73% 30.01 in 10.0 mi SSW 10.4 mph - N/A   Mostly Cloudy
11:38 AM 64.4 °F 55.4 °F 73% 30.00 in 10.0 mi SSW 10.4 mph - N/A   Mostly Cloudy
11:58 AM 65.1 °F 55.9 °F 72% 30.01 in 10.0 mi SSW 10.4 mph 16.1 mph N/A   Mostly Cloudy
12:58 PM 67.3 °F 56.7 °F 69% 29.99 in 10.0 mi Variable 5.8 mph - N/A   Mostly Cloudy
1:58 PM 70.5 °F 57.4 °F 63% 29.96 in 10.0 mi SSW 11.5 mph - N/A   Scattered Clouds
2:58 PM 70.2 °F 56.7 °F 62% 29.94 in 10.0 mi SSE 9.2 mph - N/A   Overcast
3:58 PM 70.0 °F 56.5 °F 62% 29.94 in 10.0 mi South 9.2 mph - N/A   Mostly Cloudy
4:58 PM 69.8 °F 56.8 °F 63% 29.92 in 10.0 mi South 10.4 mph - N/A   Mostly Cloudy
5:58 PM 69.6 °F 57.0 °F 64% 29.90 in 10.0 mi SSE 9.2 mph - N/A   Mostly Cloudy
6:58 PM 69.3 °F 57.0 °F 65% 29.90 in 10.0 mi SSE 10.4 mph - N/A   Overcast
7:58 PM 66.2 °F 55.9 °F 69% 29.90 in 10.0 mi SE 6.9 mph - N/A   Clear
8:58 PM 65.8 °F 56.1 °F 71% 29.90 in 10.0 mi ESE 5.8 mph - N/A   Overcast
9:27 PM 66.2 °F 55.4 °F 68% 29.89 in 10.0 mi East 5.8 mph - N/A   Light Drizzle
9:33 PM 66.2 °F 55.4 °F 68% 29.89 in 10.0 mi East 5.8 mph - N/A   Overcast
9:58 PM 65.7 °F 55.4 °F 69% 29.90 in 10.0 mi East 5.8 mph - 0.00 in   Overcast
10:58 PM 65.8 °F 53.8 °F 65% 29.88 in 10.0 mi SSE 9.2 mph - N/A   Clear
11:58 PM 64.8 °F 54.5 °F 69% 29.88 in 10.0 mi SSE 5.8 mph - N/A   Overcast